Change the Weather History Date:

Friday, January 2, 2009

  Actual Average Record
Temperature  
Mean Temperature 68 °F 61 °F  
Max Temperature 77 °F 71 °F 84 °F (1973)
Min Temperature 58 °F 52 °F 28 °F (1918)
Degree Days  
Heating Degree Days 0 5  
Month to date heating degree days 0 10  
Since 1 July heating degree days 192 165  
Cooling Degree Days 3 2  
Month to date cooling degree days 3 4  
Year to date cooling degree days 3 4  
Growing Degree Days 16 (Base 50)    
Moisture  
Dew Point 56 °F    
Average Humidity 73    
Maximum Humidity 90    
Minimum Humidity 53    
Precipitation  
Precipitation 0.00 in 0.12 in 1.56 in (1986)
Month to date precipitation 0.00 0.24  
Year to date precipitation 0.00 0.24  
Sea Level Pressure  
Sea Level Pressure 30.08 in    
Wind  
Wind Speed 9 mph (SE)    
Max Wind Speed 18 mph    
Max Gust Speed 22 mph    
Visibility 10 miles    
Events      
T = Trace of Precipitation, MM = Missing Value Source: NWS Daily Summary

Daily Weather History Graph

Daily Weather History Graph

Search for Another Location

Airport or City:

Trip Planner

Search our weather history database for the weather conditions in past years. The results will help you decide how hot, cold, wet, or windy it might be!

Date:

Astronomy

Jan. 02, 2009 Rise Set
Actual Time 7:20 AM EST 5:48 PM EST
Civil Twilight 6:55 AM EST 6:13 PM EST
Nautical Twilight 6:26 AM EST 6:42 PM EST
Astronomical Twilight 5:57 AM EST 7:11 PM EST
Moon 11:01 AM EST (1/2) 11:26 PM EST (1/2)
Length of Visible Light 11h 18m
Length of Day
10h 27m
Waxing Crescent, 32% of the Moon is Illuminated
Jan 2
Waxing Crescent
Jan 4
First Quarter
Jan 10
Full
Jan 17
Last Quarter
Jan 26
New

Hourly Weather History & Observations

Time (EST) Temp. Dew Point Humidity Pressure Visibility Wind Dir Wind Speed Gust Speed Precip Events Conditions
12:53 AM 61.0 °F 51.1 °F 70% 30.09 in 10.0 mi East 10.4 mph - N/A   Scattered Clouds
1:53 AM 59.0 °F 51.1 °F 75% 30.08 in 10.0 mi East 9.2 mph - N/A   Clear
2:53 AM 57.9 °F 52.0 °F 81% 30.07 in 10.0 mi East 9.2 mph - N/A   Partly Cloudy
3:53 AM 57.9 °F 52.0 °F 81% 30.06 in 10.0 mi East 8.1 mph - N/A   Mostly Cloudy
4:53 AM 57.9 °F 53.1 °F 84% 30.07 in 10.0 mi East 8.1 mph - N/A   Mostly Cloudy
5:53 AM 57.9 °F 53.1 °F 84% 30.07 in 10.0 mi East 8.1 mph - N/A   Partly Cloudy
6:53 AM 60.1 °F 53.1 °F 78% 30.08 in 10.0 mi ESE 10.4 mph - N/A   Clear
7:53 AM 59.0 °F 54.0 °F 83% 30.12 in 10.0 mi East 6.9 mph - N/A   Scattered Clouds
8:53 AM 62.1 °F 54.0 °F 75% 30.13 in 10.0 mi ESE 10.4 mph - N/A   Mostly Cloudy
9:53 AM 69.1 °F 55.0 °F 61% 30.14 in 10.0 mi SE 12.7 mph - N/A   Clear
10:53 AM 73.0 °F 55.9 °F 55% 30.14 in 10.0 mi ESE 15.0 mph - N/A   Partly Cloudy
11:53 AM 75.0 °F 57.0 °F 53% 30.12 in 10.0 mi SE 13.8 mph - N/A   Scattered Clouds
12:53 PM 75.0 °F 57.9 °F 55% 30.09 in 10.0 mi SE 9.2 mph - N/A   Mostly Cloudy
1:53 PM 75.0 °F 59.0 °F 57% 30.06 in 10.0 mi South 12.7 mph - N/A   Clear
2:53 PM 73.9 °F 59.0 °F 59% 30.05 in 10.0 mi South 10.4 mph - N/A   Clear
3:53 PM 73.0 °F 59.0 °F 61% 30.04 in 10.0 mi South 12.7 mph - N/A   Clear
4:53 PM 72.0 °F 60.1 °F 66% 30.04 in 10.0 mi South 8.1 mph - N/A   Clear
5:53 PM 70.0 °F 60.1 °F 71% 30.05 in 10.0 mi South 9.2 mph - N/A   Clear
6:53 PM 69.1 °F 61.0 °F 75% 30.06 in 10.0 mi South 9.2 mph - N/A   Clear
7:53 PM 68.0 °F 61.0 °F 78% 30.07 in 10.0 mi South 6.9 mph - N/A   Clear
8:53 PM 64.0 °F 59.0 °F 84% 30.09 in 10.0 mi SE 3.5 mph - N/A   Clear
9:53 PM 63.0 °F 59.0 °F 87% 30.09 in 10.0 mi SE 4.6 mph - N/A   Clear
10:53 PM 62.1 °F 59.0 °F 90% 30.09 in 10.0 mi ESE 3.5 mph - N/A   Clear
11:53 PM 60.1 °F 57.9 °F 93% 30.08 in 9.0 mi SE 5.8 mph - N/A   Clear